TimeAKDT,TemperatureF,Dew PointF,Humidity,Sea Level PressureIn,VisibilityMPH,Wind Direction,Wind SpeedMPH,Gust SpeedMPH,PrecipitationIn,Events,Conditions,WindDirDegrees,DateUTC
12:53 AM,45.0,39.9,82,29.51,10.0,East,8.1,-,N/A,,Mostly Cloudy,80,2013-10-29 08:53:00
1:53 AM,44.1,39.9,85,29.52,10.0,Variable,6.9,-,N/A,,Scattered Clouds,0,2013-10-29 09:53:00
2:53 AM,44.1,39.0,82,29.55,10.0,East,5.8,-,N/A,,Overcast,100,2013-10-29 10:53:00
3:53 AM,45.0,37.9,76,29.56,10.0,Variable,5.8,-,N/A,,Overcast,0,2013-10-29 11:53:00
4:53 AM,44.1,37.9,79,29.57,10.0,East,5.8,-,N/A,,Mostly Cloudy,100,2013-10-29 12:53:00
5:53 AM,44.1,39.0,82,29.58,10.0,Variable,5.8,-,N/A,,Overcast,0,2013-10-29 13:53:00
6:53 AM,43.0,39.0,86,29.59,10.0,East,8.1,-,N/A,,Clear,100,2013-10-29 14:53:00
7:53 AM,43.0,39.0,86,29.60,10.0,Variable,6.9,-,N/A,,Mostly Cloudy,0,2013-10-29 15:53:00
8:53 AM,43.0,39.0,86,29.60,10.0,ESE,8.1,-,N/A,,Mostly Cloudy,110,2013-10-29 16:53:00
9:53 AM,44.1,39.9,85,29.61,10.0,SE,9.2,-,N/A,,Overcast,130,2013-10-29 17:53:00
10:35 AM,43.0,39.9,89,29.62,10.0,SE,6.9,-,0.00,,Overcast,140,2013-10-29 18:35:00
10:53 AM,44.1,39.9,85,29.63,10.0,SE,6.9,-,0.00,,Overcast,140,2013-10-29 18:53:00
11:53 AM,44.1,41.0,89,29.63,9.0,SSE,9.2,-,0.00,Rain,Light Rain,150,2013-10-29 19:53:00
12:50 PM,42.8,41.0,93,29.63,10.0,SE,9.2,-,0.00,,Overcast,140,2013-10-29 20:50:00
12:53 PM,44.1,41.0,89,29.63,10.0,ESE,11.5,-,0.00,,Overcast,120,2013-10-29 20:53:00
1:15 PM,45.0,39.0,80,29.62,10.0,East,12.7,23.0,N/A,,Overcast,100,2013-10-29 21:15:00
1:53 PM,45.0,37.9,76,29.62,10.0,ESE,11.5,18.4,0.00,,Overcast,120,2013-10-29 21:53:00
2:53 PM,45.0,37.9,76,29.61,10.0,East,13.8,21.9,0.01,,Overcast,100,2013-10-29 22:53:00
3:53 PM,46.0,37.9,73,29.58,10.0,ESE,15.0,23.0,0.00,,Overcast,110,2013-10-29 23:53:00
4:53 PM,43.0,37.9,82,29.57,2.0,SE,9.2,27.6,0.05,Rain,Rain,130,2013-10-30 00:53:00
4:58 PM,43.0,39.0,86,29.56,3.0,ESE,9.2,27.6,0.00,Rain,Rain,120,2013-10-30 00:58:00
5:29 PM,44.1,39.0,82,29.55,5.0,East,21.9,35.7,0.03,Rain,Light Rain,100,2013-10-30 01:29:00
5:53 PM,43.0,39.0,86,29.55,4.0,ESE,13.8,33.4,0.05,Rain,Rain,120,2013-10-30 01:53:00
6:42 PM,44.1,39.0,82,29.52,4.0,East,16.1,39.1,0.11,Rain,Light Rain,100,2013-10-30 02:42:00
6:53 PM,44.1,39.0,82,29.52,3.0,SE,13.8,35.7,0.13,Rain,Rain,130,2013-10-30 02:53:00
7:53 PM,44.1,39.0,82,29.51,3.0,East,21.9,35.7,0.08,Rain,Rain,100,2013-10-30 03:53:00
8:53 PM,44.1,39.0,82,29.49,6.0,ESE,19.6,36.8,0.04,Rain,Light Rain,110,2013-10-30 04:53:00
9:08 PM,44.1,37.9,79,29.48,4.0,East,18.4,33.4,0.03,Rain,Light Rain,100,2013-10-30 05:08:00
9:38 PM,44.1,39.0,82,29.47,3.0,East,13.8,31.1,0.10,Rain,Rain,90,2013-10-30 05:38:00
9:53 PM,44.1,39.0,82,29.47,3.0,East,25.3,40.3,0.14,Rain,Rain,90,2013-10-30 05:53:00
10:15 PM,45.0,37.9,76,29.45,6.0,East,23.0,42.6,0.03,Rain,Light Rain,80,2013-10-30 06:15:00
10:53 PM,44.1,37.9,79,29.44,4.0,East,20.7,47.2,0.10,Rain,Rain,80,2013-10-30 06:53:00
11:46 PM,44.1,39.0,82,29.41,4.0,East,24.2,39.1,0.07,Rain,Rain,100,2013-10-30 07:46:00
11:53 PM,44.1,39.0,82,29.41,3.0,East,19.6,46.0,0.09,Rain,Rain,90,2013-10-30 07:53:00